Overview Statistics Trail Chart Weather Telemetry Raw packets
 

This is the latest recevied weather packets stored in our database for station/object K9COE-11. If no packets are shown the sender has not sent any weather packets the latest 10 day(s).

<< 44 45 46 47 48 49 50 >>
Time Temp. Humidity Pressure Rain* Wind** Luminosity Snow
1788540102 22.22° C 59% - 0 mm - - -
1788539969 22.22° C 60% - 0 mm - - -
1788539831 22.22° C 60% - 0 mm - - -
1788539693 22.22° C 59% - 0 mm - - -
1788539423 21.67° C - - - - - -
1788539158 21.11° C 61% - 0 mm - - -
1788539026 21.11° C 61% - 0 mm - - -
1788538888 21.11° C - - - - - -
1788538757 20.56° C 65% - 0 mm - - -
1788538354 21.11° C 66% - 0 mm - - -
1788537945 21.11° C 66% - 0 mm - - -
1788537807 21.11° C 67% - 0 mm - - -
1788537674 20.56° C 66% - 0 mm - - -
1788537404 21.11° C 67% - 0 mm - - -
1788537272 20.56° C 67% - 0 mm - - -
1788536990 20.56° C 68% - 0 mm - - -
1788536016 20° C 71% - 0 mm - - -
1788535596 19.44° C 74% - 0 mm - - -
1788535458 19.44° C 75% - 0 mm - - -
1788535319 19.44° C 75% - 0 mm - - -
1788535175 18.89° C 76% - 0 mm - - -
1788535037 18.89° C 78% - 0 mm - - -
1788534761 17.78° C 80% - 0 mm - - -
1788534623 17.78° C 81% - 0 mm - - -
1788534478 17.22° C 83% - 0 mm - - -

* Rain latest 24 hours (hover to see other rain measurements)
** Current wind speed in m/s (hover to see current wind gust speed)